����������;��������(kWh)
2019-07-22 00:00;76,55
2019-07-22 00:15;76,3
2019-07-22 00:30;76,85
2019-07-22 00:45;76,8
2019-07-22 01:00;78,15
2019-07-22 01:15;76,85
2019-07-22 01:30;76,2
2019-07-22 01:45;75,5
2019-07-22 02:00;76,95
2019-07-22 02:15;76,5
2019-07-22 02:30;76,55
2019-07-22 02:45;77,75
2019-07-22 03:00;75,1
2019-07-22 03:15;74,9
2019-07-22 03:30;79,1
2019-07-22 03:45;76,7
2019-07-22 04:00;76,85
2019-07-22 04:15;79,85
2019-07-22 04:30;77,65
2019-07-22 04:45;77,2
2019-07-22 05:00;77,65
2019-07-22 05:15;77,85
2019-07-22 05:30;78,15
2019-07-22 05:45;78,5
2019-07-22 06:00;75,35
2019-07-22 06:15;74,15
2019-07-22 06:30;71,4
2019-07-22 06:45;70,25
2019-07-22 07:00;74,7
2019-07-22 07:15;77,6
2019-07-22 07:30;129,1
2019-07-22 07:45;139,9
2019-07-22 08:00;108,8
2019-07-22 08:15;109,45
2019-07-22 08:30;107,25
2019-07-22 08:45;133,1
2019-07-22 09:00;150,15
2019-07-22 09:15;163,05
2019-07-22 09:30;171,8
2019-07-22 09:45;179,3
2019-07-22 10:00;180
2019-07-22 10:15;188,8
2019-07-22 10:30;180,8
2019-07-22 10:45;187,95
2019-07-22 11:00;193,7
2019-07-22 11:15;199,95
2019-07-22 11:30;201,8
2019-07-22 11:45;196,4
2019-07-22 12:00;205
2019-07-22 12:15;212,9
2019-07-22 12:30;207,25
2019-07-22 12:45;202,6
2019-07-22 13:00;222,7
2019-07-22 13:15;203,2
2019-07-22 13:30;205,35
2019-07-22 13:45;204,9
2019-07-22 14:00;205,9
2019-07-22 14:15;200,7
2019-07-22 14:30;191,8
2019-07-22 14:45;199,1
2019-07-22 15:00;194,7
2019-07-22 15:15;183,7
2019-07-22 15:30;177,8
2019-07-22 15:45;159,75
2019-07-22 16:00;155,25
2019-07-22 16:15;146
2019-07-22 16:30;149
2019-07-22 16:45;141,95
2019-07-22 17:00;139,35
2019-07-22 17:15;129,7
2019-07-22 17:30;131,9
2019-07-22 17:45;120,8
2019-07-22 18:00;119
2019-07-22 18:15;116,65
2019-07-22 18:30;112,85
2019-07-22 18:45;113,6
2019-07-22 19:00;113,05
2019-07-22 19:15;113,9
2019-07-22 19:30;111,55
2019-07-22 19:45;110,1
2019-07-22 20:00;108,05
2019-07-22 20:15;106,35
2019-07-22 20:30;103,3
2019-07-22 20:45;104,85
2019-07-22 21:00;109,4
2019-07-22 21:15;107,2
2019-07-22 21:30;106,8
2019-07-22 21:45;104,3
2019-07-22 22:00;102,2
2019-07-22 22:15;92,35
2019-07-22 22:30;90,45
2019-07-22 22:45;88
2019-07-22 23:00;95,7
2019-07-22 23:15;93,2
2019-07-22 23:30;93,65
2019-07-22 23:45;96,55
2019-07-23 00:00;83,9
2019-07-23 00:15;82,9
2019-07-23 00:30;84,1
2019-07-23 00:45;81,45
2019-07-23 01:00;83,3
2019-07-23 01:15;84,8
2019-07-23 01:30;81,7
2019-07-23 01:45;81,8
2019-07-23 02:00;82,2
2019-07-23 02:15;82,05
2019-07-23 02:30;82,35
2019-07-23 02:45;83,15
2019-07-23 03:00;82,35
2019-07-23 03:15;84,15
2019-07-23 03:30;84,2
2019-07-23 03:45;84,65
2019-07-23 04:00;82,95
2019-07-23 04:15;83,9
2019-07-23 04:30;84,65
2019-07-23 04:45;85,15
2019-07-23 05:00;83,4
2019-07-23 05:15;86,15
2019-07-23 05:30;85,6
2019-07-23 05:45;85,45
2019-07-23 06:00;82,3
2019-07-23 06:15;82,15
2019-07-23 06:30;78,8
2019-07-23 06:45;77
2019-07-23 07:00;81,4
2019-07-23 07:15;81,3
2019-07-23 07:30;121,1
2019-07-23 07:45;111,55
2019-07-23 08:00;99,85
2019-07-23 08:15;101,6
2019-07-23 08:30;113
2019-07-23 08:45;127,6
2019-07-23 09:00;134,9
2019-07-23 09:15;154,6
2019-07-23 09:30;166,65
2019-07-23 09:45;170,9
2019-07-23 10:00;166,35
2019-07-23 10:15;186,05
2019-07-23 10:30;186,75
2019-07-23 10:45;192,7
2019-07-23 11:00;202,9
2019-07-23 11:15;203,05
2019-07-23 11:30;201,05
2019-07-23 11:45;202,75
2019-07-23 12:00;201,35
2019-07-23 12:15;199,75
2019-07-23 12:30;207,5
2019-07-23 12:45;205,8
2019-07-23 13:00;208,65
2019-07-23 13:15;205,8
2019-07-23 13:30;201,5
2019-07-23 13:45;201,75
2019-07-23 14:00;203,75
2019-07-23 14:15;200,9
2019-07-23 14:30;198,95
2019-07-23 14:45;195,75
2019-07-23 15:00;196,7
2019-07-23 15:15;176,3
2019-07-23 15:30;168,2
2019-07-23 15:45;173,7
2019-07-23 16:00;166,3
2019-07-23 16:15;155,2
2019-07-23 16:30;159,55
2019-07-23 16:45;144,05
2019-07-23 17:00;128,5
2019-07-23 17:15;135,9
2019-07-23 17:30;130,1
2019-07-23 17:45;123,95
2019-07-23 18:00;119,75
2019-07-23 18:15;118,65
2019-07-23 18:30;114,95
2019-07-23 18:45;116
2019-07-23 19:00;114,05
2019-07-23 19:15;114,25
2019-07-23 19:30;112,9
2019-07-23 19:45;112,9
2019-07-23 20:00;110
2019-07-23 20:15;110,05
2019-07-23 20:30;109,15
2019-07-23 20:45;106,25
2019-07-23 21:00;110,2
2019-07-23 21:15;109,85
2019-07-23 21:30;109,4
2019-07-23 21:45;108,6
2019-07-23 22:00;106,45
2019-07-23 22:15;104
2019-07-23 22:30;98,7
2019-07-23 22:45;89,8
2019-07-23 23:00;95,7
2019-07-23 23:15;89,55
2019-07-23 23:30;93,95
2019-07-23 23:45;95,3
2019-07-24 00:00;82,3
2019-07-24 00:15;84,4
2019-07-24 00:30;82,9
2019-07-24 00:45;81,8
2019-07-24 01:00;82,4
2019-07-24 01:15;80,9
2019-07-24 01:30;82,55
2019-07-24 01:45;82,1
2019-07-24 02:00;81,95
2019-07-24 02:15;84,1
2019-07-24 02:30;83
2019-07-24 02:45;81,25
2019-07-24 03:00;80,3
2019-07-24 03:15;81,35
2019-07-24 03:30;82,5
2019-07-24 03:45;83,95
2019-07-24 04:00;83,75
2019-07-24 04:15;84,2
2019-07-24 04:30;83,5
2019-07-24 04:45;82,6
2019-07-24 05:00;83,4
2019-07-24 05:15;82,4
2019-07-24 05:30;83,25
2019-07-24 05:45;82,85
2019-07-24 06:00;84,65
2019-07-24 06:15;81,65
2019-07-24 06:30;79,9
2019-07-24 06:45;79,55
2019-07-24 07:00;77,75
2019-07-24 07:15;79,3
2019-07-24 07:30;121,4
2019-07-24 07:45;111,25
2019-07-24 08:00;96,05
2019-07-24 08:15;106,05
2019-07-24 08:30;122,75
2019-07-24 08:45;135,25
2019-07-24 09:00;132,4
2019-07-24 09:15;144,3
2019-07-24 09:30;154
2019-07-24 09:45;155,2
2019-07-24 10:00;174,5
2019-07-24 10:15;184,7
2019-07-24 10:30;184,45
2019-07-24 10:45;186,1
2019-07-24 11:00;199,3
2019-07-24 11:15;201,45
2019-07-24 11:30;204,15
2019-07-24 11:45;215,25
2019-07-24 12:00;220,05
2019-07-24 12:15;213,7
2019-07-24 12:30;207,55
2019-07-24 12:45;205,2
2019-07-24 13:00;209,4
2019-07-24 13:15;212,55
2019-07-24 13:30;214,05
2019-07-24 13:45;209,1
2019-07-24 14:00;201,8
2019-07-24 14:15;204,1
2019-07-24 14:30;198,35
2019-07-24 14:45;192,25
2019-07-24 15:00;182,5
2019-07-24 15:15;178,7
2019-07-24 15:30;190,3
2019-07-24 15:45;173,7
2019-07-24 16:00;159,95
2019-07-24 16:15;163,85
2019-07-24 16:30;152,1
2019-07-24 16:45;144,6
2019-07-24 17:00;139,6
2019-07-24 17:15;127,2
2019-07-24 17:30;120,25
2019-07-24 17:45;110,55
2019-07-24 18:00;108,4
2019-07-24 18:15;107,55
2019-07-24 18:30;117,2
2019-07-24 18:45;112,95
2019-07-24 19:00;113,4
2019-07-24 19:15;115,35
2019-07-24 19:30;113,55
2019-07-24 19:45;112,45
2019-07-24 20:00;104,05
2019-07-24 20:15;97,15
2019-07-24 20:30;96,7
2019-07-24 20:45;95,95
2019-07-24 21:00;97,2
2019-07-24 21:15;94,65
2019-07-24 21:30;92,25
2019-07-24 21:45;94,05
2019-07-24 22:00;91,95
2019-07-24 22:15;90,7
2019-07-24 22:30;89,35
2019-07-24 22:45;89
2019-07-24 23:00;95,75
2019-07-24 23:15;90,6
2019-07-24 23:30;91,1
2019-07-24 23:45;93,9
2019-07-25 00:00;82,1
2019-07-25 00:15;83,55
2019-07-25 00:30;82,85
2019-07-25 00:45;82,55
2019-07-25 01:00;85,15
2019-07-25 01:15;82,95
2019-07-25 01:30;80,05
2019-07-25 01:45;81,05
2019-07-25 02:00;79,75
2019-07-25 02:15;80,9
2019-07-25 02:30;82
2019-07-25 02:45;83,1
2019-07-25 03:00;83,05
2019-07-25 03:15;83,05
2019-07-25 03:30;85,1
2019-07-25 03:45;83,85
2019-07-25 04:00;84,55
2019-07-25 04:15;86,6
2019-07-25 04:30;85,15
2019-07-25 04:45;85,65
2019-07-25 05:00;83,7
2019-07-25 05:15;85,5
2019-07-25 05:30;85,9
2019-07-25 05:45;85,8
2019-07-25 06:00;83,2
2019-07-25 06:15;77,8
2019-07-25 06:30;76,7
2019-07-25 06:45;77,25
2019-07-25 07:00;81,5
2019-07-25 07:15;88,45
2019-07-25 07:30;131,7
2019-07-25 07:45;122,6
2019-07-25 08:00;115,55
2019-07-25 08:15;114,75
2019-07-25 08:30;128,9
2019-07-25 08:45;134,65
2019-07-25 09:00;136,65
2019-07-25 09:15;148,75
2019-07-25 09:30;160,7
2019-07-25 09:45;171,5
2019-07-25 10:00;167,35
2019-07-25 10:15;166,9
2019-07-25 10:30;188,45
2019-07-25 10:45;186,75
2019-07-25 11:00;186,85
2019-07-25 11:15;195,85
2019-07-25 11:30;196,1
2019-07-25 11:45;204,15
2019-07-25 12:00;193,25
2019-07-25 12:15;189,35
2019-07-25 12:30;200,2
2019-07-25 12:45;190,55
2019-07-25 13:00;187,2
2019-07-25 13:15;198,85
2019-07-25 13:30;199,65
2019-07-25 13:45;196,1
2019-07-25 14:00;190,05
2019-07-25 14:15;188,45
2019-07-25 14:30;182,3
2019-07-25 14:45;181,55
2019-07-25 15:00;171,3
2019-07-25 15:15;163,05
2019-07-25 15:30;163,9
2019-07-25 15:45;155,7
2019-07-25 16:00;149,4
2019-07-25 16:15;145,05
2019-07-25 16:30;141,75
2019-07-25 16:45;128,05
2019-07-25 17:00;122,9
2019-07-25 17:15;124,2
2019-07-25 17:30;124,55
2019-07-25 17:45;113,3
2019-07-25 18:00;110,2
2019-07-25 18:15;108,2
2019-07-25 18:30;106,8
2019-07-25 18:45;104,1
2019-07-25 19:00;102,65
2019-07-25 19:15;103,35
2019-07-25 19:30;105,35
2019-07-25 19:45;103,75
2019-07-25 20:00;103,25
2019-07-25 20:15;103,75
2019-07-25 20:30;96,05
2019-07-25 20:45;92,05
2019-07-25 21:00;92,4
2019-07-25 21:15;93
2019-07-25 21:30;93,6
2019-07-25 21:45;92,35
2019-07-25 22:00;89,55
2019-07-25 22:15;89,7
2019-07-25 22:30;86,8
2019-07-25 22:45;85,25
2019-07-25 23:00;94,05
2019-07-25 23:15;86,95
2019-07-25 23:30;89,25
2019-07-25 23:45;93,95
2019-07-26 00:00;83,35
2019-07-26 00:15;83,1
2019-07-26 00:30;81,6
2019-07-26 00:45;81,55
2019-07-26 01:00;82,55
2019-07-26 01:15;82,05
2019-07-26 01:30;80,1
2019-07-26 01:45;82,1
2019-07-26 02:00;81,9
2019-07-26 02:15;82,45
2019-07-26 02:30;82,3
2019-07-26 02:45;82
2019-07-26 03:00;80,4
2019-07-26 03:15;80,45
2019-07-26 03:30;83,55
2019-07-26 03:45;81,2
2019-07-26 04:00;81
2019-07-26 04:15;82,5
2019-07-26 04:30;85,55
2019-07-26 04:45;80,05
2019-07-26 05:00;80,75
2019-07-26 05:15;82,4
2019-07-26 05:30;80,55
2019-07-26 05:45;80,5
2019-07-26 06:00;80,6
2019-07-26 06:15;77,85
2019-07-26 06:30;76,1
2019-07-26 06:45;77,65
2019-07-26 07:00;83,2
2019-07-26 07:15;86,95
2019-07-26 07:30;125,5
2019-07-26 07:45;119,65
2019-07-26 08:00;109,1
2019-07-26 08:15;108,9
2019-07-26 08:30;125,7
2019-07-26 08:45;127,65
2019-07-26 09:00;133,85
2019-07-26 09:15;147,9
2019-07-26 09:30;156,7
2019-07-26 09:45;162,4
2019-07-26 10:00;163,1
2019-07-26 10:15;177,9
2019-07-26 10:30;179,35
2019-07-26 10:45;180,15
2019-07-26 11:00;177,4
2019-07-26 11:15;181,4
2019-07-26 11:30;179,35
2019-07-26 11:45;187,5
2019-07-26 12:00;191
2019-07-26 12:15;199,8
2019-07-26 12:30;193,75
2019-07-26 12:45;188,3
2019-07-26 13:00;188,05
2019-07-26 13:15;193,2
2019-07-26 13:30;189,75
2019-07-26 13:45;187,3
2019-07-26 14:00;180,15
2019-07-26 14:15;187,95
2019-07-26 14:30;179,9
2019-07-26 14:45;173,5
2019-07-26 15:00;178,7
2019-07-26 15:15;169,3
2019-07-26 15:30;164,2
2019-07-26 15:45;149
2019-07-26 16:00;148
2019-07-26 16:15;140
2019-07-26 16:30;128,3
2019-07-26 16:45;133,9
2019-07-26 17:00;123,45
2019-07-26 17:15;115,8
2019-07-26 17:30;117,9
2019-07-26 17:45;109,05
2019-07-26 18:00;109,15
2019-07-26 18:15;115,95
2019-07-26 18:30;110,75
2019-07-26 18:45;107,2
2019-07-26 19:00;107,95
2019-07-26 19:15;109,3
2019-07-26 19:30;107,75
2019-07-26 19:45;108,7
2019-07-26 20:00;102,1
2019-07-26 20:15;102,5
2019-07-26 20:30;100,4
2019-07-26 20:45;104,05
2019-07-26 21:00;109,65
2019-07-26 21:15;105,35
2019-07-26 21:30;103,3
2019-07-26 21:45;101,3
2019-07-26 22:00;97,6
2019-07-26 22:15;96,95
2019-07-26 22:30;96,5
2019-07-26 22:45;96,75
2019-07-26 23:00;103,3
2019-07-26 23:15;97,9
2019-07-26 23:30;99,35
2019-07-26 23:45;104,85
2019-07-27 00:00;90,4
2019-07-27 00:15;81
2019-07-27 00:30;81,3
2019-07-27 00:45;79,35
2019-07-27 01:00;79,15
2019-07-27 01:15;81,35
2019-07-27 01:30;80,25
2019-07-27 01:45;79,15
2019-07-27 02:00;79,3
2019-07-27 02:15;79,25
2019-07-27 02:30;77,6
2019-07-27 02:45;80,6
2019-07-27 03:00;82,6
2019-07-27 03:15;81,6
2019-07-27 03:30;83,8
2019-07-27 03:45;83,6
2019-07-27 04:00;83,7
2019-07-27 04:15;83,5
2019-07-27 04:30;84,5
2019-07-27 04:45;83,5
2019-07-27 05:00;83,45
2019-07-27 05:15;84,35
2019-07-27 05:30;86,1
2019-07-27 05:45;83,8
2019-07-27 06:00;83,15
2019-07-27 06:15;81,75
2019-07-27 06:30;77,8
2019-07-27 06:45;73,55
2019-07-27 07:00;74,45
2019-07-27 07:15;74,3
2019-07-27 07:30;72,1
2019-07-27 07:45;74,35
2019-07-27 08:00;73,45
2019-07-27 08:15;72,1
2019-07-27 08:30;73,55
2019-07-27 08:45;75,05
2019-07-27 09:00;75,4
2019-07-27 09:15;74,75
2019-07-27 09:30;76,5
2019-07-27 09:45;74,55
2019-07-27 10:00;78,3
2019-07-27 10:15;74,9
2019-07-27 10:30;77,45
2019-07-27 10:45;74,35
2019-07-27 11:00;74,15
2019-07-27 11:15;77,35
2019-07-27 11:30;76,05
2019-07-27 11:45;77,85
2019-07-27 12:00;79,65
2019-07-27 12:15;79,65
2019-07-27 12:30;78,2
2019-07-27 12:45;77,95
2019-07-27 13:00;80,6
2019-07-27 13:15;78,65
2019-07-27 13:30;80,75
2019-07-27 13:45;78,7
2019-07-27 14:00;80,2
2019-07-27 14:15;79,7
2019-07-27 14:30;79,65
2019-07-27 14:45;82,3
2019-07-27 15:00;83,1
2019-07-27 15:15;82,5
2019-07-27 15:30;84,55
2019-07-27 15:45;82,55
2019-07-27 16:00;83,15
2019-07-27 16:15;82,65
2019-07-27 16:30;81,8
2019-07-27 16:45;80,65
2019-07-27 17:00;80,95
2019-07-27 17:15;82,9
2019-07-27 17:30;83,7
2019-07-27 17:45;82,05
2019-07-27 18:00;83,1
2019-07-27 18:15;82,7
2019-07-27 18:30;83,15
2019-07-27 18:45;81,4
2019-07-27 19:00;80,65
2019-07-27 19:15;83,85
2019-07-27 19:30;86,55
2019-07-27 19:45;87,85
2019-07-27 20:00;86,85
2019-07-27 20:15;85,7
2019-07-27 20:30;85,45
2019-07-27 20:45;85,85
2019-07-27 21:00;87,6
2019-07-27 21:15;85,5
2019-07-27 21:30;87,45
2019-07-27 21:45;86,3
2019-07-27 22:00;87,55
2019-07-27 22:15;84,95
2019-07-27 22:30;83,5
2019-07-27 22:45;82,5
2019-07-27 23:00;90,55
2019-07-27 23:15;84,3
2019-07-27 23:30;89,55
2019-07-27 23:45;94,55
2019-07-28 00:00;81,8
2019-07-28 00:15;82,25
2019-07-28 00:30;83,4
2019-07-28 00:45;81,65
2019-07-28 01:00;82,8
2019-07-28 01:15;81,45
2019-07-28 01:30;81,2
2019-07-28 01:45;83
2019-07-28 02:00;79,9
2019-07-28 02:15;81,2
2019-07-28 02:30;85,5
2019-07-28 02:45;81,6
2019-07-28 03:00;80,55
2019-07-28 03:15;81,75
2019-07-28 03:30;81,3
2019-07-28 03:45;81,5
2019-07-28 04:00;83,7
2019-07-28 04:15;82,65
2019-07-28 04:30;83
2019-07-28 04:45;86,15
2019-07-28 05:00;82,8
2019-07-28 05:15;81,9
2019-07-28 05:30;83,1
2019-07-28 05:45;82,85
2019-07-28 06:00;80,5
2019-07-28 06:15;79,7
2019-07-28 06:30;78
2019-07-28 06:45;76,3
2019-07-28 07:00;76,75
2019-07-28 07:15;73,4
2019-07-28 07:30;73,2
2019-07-28 07:45;73,6
2019-07-28 08:00;74,35
2019-07-28 08:15;74,15
2019-07-28 08:30;73,6
2019-07-28 08:45;75,2
2019-07-28 09:00;77,05
2019-07-28 09:15;75,25
2019-07-28 09:30;79,6
2019-07-28 09:45;76,95
2019-07-28 10:00;77,3
2019-07-28 10:15;74,2
2019-07-28 10:30;77,25
2019-07-28 10:45;74,3
2019-07-28 11:00;75,95
2019-07-28 11:15;77,2
2019-07-28 11:30;80,75
2019-07-28 11:45;78,4
2019-07-28 12:00;79,7
2019-07-28 12:15;80,05
2019-07-28 12:30;79,65
2019-07-28 12:45;79,45
2019-07-28 13:00;78,9
2019-07-28 13:15;81,55
2019-07-28 13:30;81,05
2019-07-28 13:45;81,35
2019-07-28 14:00;81,3
2019-07-28 14:15;80,5
2019-07-28 14:30;80,55
2019-07-28 14:45;81,65
2019-07-28 15:00;82,3
2019-07-28 15:15;80,6
2019-07-28 15:30;82
2019-07-28 15:45;80,8
2019-07-28 16:00;81,5
2019-07-28 16:15;84
2019-07-28 16:30;80,5
2019-07-28 16:45;80,75
2019-07-28 17:00;79,75
2019-07-28 17:15;81,2
2019-07-28 17:30;81,05
2019-07-28 17:45;82,55
2019-07-28 18:00;81,9
2019-07-28 18:15;83,8
2019-07-28 18:30;84,3
2019-07-28 18:45;82,95
2019-07-28 19:00;83,35
2019-07-28 19:15;85,9
2019-07-28 19:30;85,7
2019-07-28 19:45;89
2019-07-28 20:00;86,95
2019-07-28 20:15;87,6
2019-07-28 20:30;89,55
2019-07-28 20:45;89,45
2019-07-28 21:00;92,15
2019-07-28 21:15;89,5
2019-07-28 21:30;89,9
2019-07-28 21:45;90,35
2019-07-28 22:00;87,3
2019-07-28 22:15;84,35
2019-07-28 22:30;85,7
2019-07-28 22:45;84,8
2019-07-28 23:00;94,35
2019-07-28 23:15;84,2
2019-07-28 23:30;88,8
2019-07-28 23:45;92,85

